Lexington Weather

Lexington, Massachusetts, USA

43°F
11/27/2020 4:11am 
  • Lexington Conditions: Mist, Overcast
  • Temperature: 43.3°F / 6.3°CWarmer 3.0°F than last hour.
  • Dew Point: 42.8°FIncreased 3.2°Fsince last hour.
  • Relative Humidity: 98%Increased 1.0% since last hour.
  • Wind: Calm, 10-min avg: Calm, gust: None
  • Barometer: 29.97 in Steady
  • Visibility: ¾ mile
  • Rain Today: 0.00 in
  •   
Southeast Middlesex County - Special Weather Statement
 - SEE ALL NEARBY ALERTS -

Regional Weather Roundup
for Boston / Norton, MA

        
000
ASUS41 KBOX 250104
RWRBOX

REGIONAL WEATHER ROUNDUP
NATIONAL WEATHER SERVICE BOSTON/NORTON MA
800 PM EST TUE NOV 24 2020

NOTE:  "FAIR" INDICATES FEW OR NO CLOUDS BELOW 12,000 FEET WITH NO 
SIGNIFICANT WEATHER AND/OR OBSTRUCTIONS TO VISIBILITY.

MAZALL-250200-
EASTERN MASSACHUSETTS
  
CITY           SKY/WX    TMP DP  RH WIND       PRES   REMARKS
BOSTON         PTCLDY    34  15  46 N8        30.44R WCI  27          
BEVERLY        CLEAR     31  14  49 NW5       30.43R WCI  26          
LAWRENCE       CLEAR     31  14  49 N6        30.45R WCI  25          
BEDFORD        CLEAR     31  15  52 N3        30.41R                  
BLUE HILL        N/A     32  15  49 N8        30.39R WCI  25          
NORWOOD        CLEAR     30  23  75 CALM      30.43R                  
MARSHFIELD     CLEAR     32  23  69 CALM      30.44R                  
PLYMOUTH       CLEAR     26  22  84 CALM      30.41R                  
TAUNTON        CLEAR     28  23  81 CALM      30.42R                  
NEW BEDFORD    CLEAR     27  24  89 CALM      30.42R                  
$$

MAZALL-250200-
CAPE COD AND THE ISLANDS
  
CITY           SKY/WX    TMP DP  RH WIND       PRES   REMARKS
FALMOUTH       CLEAR     28  19  69 CALM      30.42R                  
HYANNIS        CLEAR     32  22  66 NW5       30.41R WCI  27          
CHATHAM        CLEAR     38  21  50 N3        30.42R                  
PROVINCETOWN   CLEAR     40  24  53 N13       30.43R                  
NANTUCKET      CLEAR     40  23  50 N7        30.41R                  
MARTHAS VNYRD  CLEAR     26  19  74 CALM      30.42R                  
$$
 
MAZALL-250200-
CENTRAL AND WESTERN MASSACHUSETTS
  
CITY           SKY/WX    TMP DP  RH WIND       PRES   REMARKS
WORCESTER      CLEAR     33  15  47 N5        30.39R WCI  29          
FITCHBURG      CLEAR     26  20  77 N3        30.42R                  
ORANGE         CLEAR     25  21  85 CALM      30.41R                  
SPRINGFIELD    MOCLDY    26  20  80 CALM      30.40R                  
WESTFIELD      CLEAR     28  22  78 CALM      30.41R                  
NORTH ADAMS    CLEAR     28  22  78 W3        30.38S                  
PITTSFIELD     PTCLDY    30  20  66 SW3       30.36R                  
$$
 
RIZALL-250200-
RHODE ISLAND
  
CITY           SKY/WX    TMP DP  RH WIND       PRES   REMARKS
PROVIDENCE     CLEAR     35  20  54 E5        30.43R WCI  31          
NEWPORT        CLEAR     36  22  56 N5        30.41R                  
BLOCK ISLAND   CLEAR     40  19  43 VRB3      30.43R                  
SMITHFIELD     CLEAR     30  21  69 E3        30.41R                  
WESTERLY       CLEAR     30  23  75 CALM      30.42R                  
$$
 
CTZALL-250200-
CONNECTICUT
  
CITY           SKY/WX    TMP DP  RH WIND       PRES   REMARKS
BRADLEY INTL   PTCLDY    32  21  64 CALM      30.42R                  
HARTFORD       CLEAR     34  24  67 CALM      30.43R                  
BRIDGEPORT     PTCLDY    41  25  53 NE5       30.41S                  
DANBURY        PTCLDY    31  25  78 CALM      30.41R                  
GROTON         CLEAR     31  25  78 E3        30.42R                  
NEW HAVEN      PTCLDY    35  25  66 N3        30.42R                  
CHESTER        FAIR      34  19  55 NW5       30.41R WCI  30          
MERIDEN        CLEAR     31  24  75 CALM      30.42R                  
WILLIMANTIC    CLEAR     28  23  81 CALM      30.42R                  
OXFORD         PTCLDY    35  21  56 NE5       30.40R WCI  31          
$$

MEZ002-015-021-024-NHZ003-005-008-011-012-014-VTZ005-008-250200-
NORTHERN NEW ENGLAND
  
CITY           SKY/WX    TMP DP  RH WIND       PRES   REMARKS
PORTLAND ME    CLEAR     26  14  60 N5        30.45R WCI  20          
BANGOR ME      CLEAR     24  10  55 NW9       30.43R WCI  14          
CONCORD NH     CLEAR     26  12  55 NW8       30.44R WCI  18          
MANCHESTER NH  PTCLDY    31  11  43 N12       30.42R WCI  22          
NASHUA NH      CLEAR     30  16  56 NW7       30.44R WCI  23          
PORTSMOUTH NH  PTCLDY    29  10  44 N12       30.43R WCI  20          
JAFFREY NH     CLEAR     26  18  71 CALM      30.39R                  
KEENE NH       CLEAR     24  20  84 S3        30.42R                  
BURLINGTON VT  PTCLDY    23  12  62 SE3       30.45S                  
MT. WASHINGTON MOCLDY    14 -45   5 N36         N/A  WCI  -8          
$$

NYZ052-076-250200-
EASTERN NEW YORK
  
CITY           SKY/WX    TMP DP  RH WIND       PRES   REMARKS
ALBANY         MOCLDY    28  20  71 NW7       30.42R WCI  21          
NEW YORK CITY  PTCLDY    46  25  43 CALM      30.40R                  
$$
 
ANZALL-250200-
MARINE OBSERVATIONS
  
STATION/POSITION TIME  TEMP    WIND        PRES    VSBY  WAVE
                       AIR SEA DIR/SP/G                  HT/PER
                 (UTC) (F)     (DEG/KT/KT) (MB)    (MI)  (FT/S)
BOSTON BUOY      0040   39 50  350/ 14/ 17 1030.6R
BUZZARDS BAY     0000          340/ 11/ 13 1030.7R
NANTUCKET SOUND  0040      50  340/ 10/ 14   N/A
MASS BAY-STELLWA NOT AVBL
ISLE OF SHOALS   NOT AVBL
S OF BLOCK IS    0026      57                N/A           3/ 5
$$

......................KEY.........................
  SKY/WX - SKY CONDITION/PRESENT WEATHER
  TMP    - TEMPERATURE IN FAHRENHEIT
  DWPT   - DEWPOINT IN FAHRENHEIT
  RH     - RELATIVE HUMIDITY IN PERCENT
  WIND   - DIRECTION AND SPEED IN MPH
  PRES   - MEAN SEA LEVEL PRESSURE IN INCHES OF HG
  WCI    - WIND CHILL INDEX
  VSB    - VISIBILITY IN MILES
  HX     - HEAT INDEX
  TC     - TEMPERATURE IN CELSIUS
  VRB    - VARIABLE WIND DIRECTION
  N/A    - NOT AVAILABLE
  
      

Other recent Regional Weather Roundups

Fri Nov 27, 1:04am

Fri Nov 27, 12:04am

Thu Nov 26, 11:04pm

Thu Nov 26, 10:04pm

Thu Nov 26, 9:04pm

Thu Nov 26, 8:04pm

Thu Nov 26, 7:04pm

Thu Nov 26, 6:04pm

Thu Nov 26, 5:04pm

Thu Nov 26, 4:04pm

Thu Nov 26, 2:04pm

Thu Nov 26, 1:04pm

Thu Nov 26, 12:04pm

Thu Nov 26, 11:04am

Thu Nov 26, 10:04am

Thu Nov 26, 9:04am

Thu Nov 26, 8:04am

Thu Nov 26, 7:04am

Thu Nov 26, 6:04am

Thu Nov 26, 5:04am

Thu Nov 26, 4:04am

Thu Nov 26, 3:04am

Thu Nov 26, 2:04am

Thu Nov 26, 1:04am

Thu Nov 26, 12:04am

Wed Nov 25, 11:04pm

Wed Nov 25, 10:04pm

Wed Nov 25, 9:04pm

Wed Nov 25, 8:04pm

Wed Nov 25, 7:04pm

Wed Nov 25, 6:04pm

Wed Nov 25, 5:04pm

Wed Nov 25, 4:04pm

Wed Nov 25, 3:05pm

Wed Nov 25, 2:04pm

Wed Nov 25, 1:04pm

Wed Nov 25, 12:05pm

Wed Nov 25, 11:04am

Wed Nov 25, 10:04am

Wed Nov 25, 9:04am

Wed Nov 25, 8:04am

Wed Nov 25, 7:04am

Wed Nov 25, 6:04am

Wed Nov 25, 5:04am

Wed Nov 25, 4:04am

Wed Nov 25, 3:04am

Wed Nov 25, 2:04am

Wed Nov 25, 1:04am

Wed Nov 25, 12:04am

Tue Nov 24, 11:04pm

Tue Nov 24, 10:04pm

Tue Nov 24, 9:04pm

Tue Nov 24, 7:04pm

Tue Nov 24, 6:04pm

Tue Nov 24, 5:04pm

Tue Nov 24, 4:05pm

Tue Nov 24, 3:05pm

Tue Nov 24, 2:05pm

Tue Nov 24, 1:05pm

Tue Nov 24, 12:04pm

Tue Nov 24, 11:04am

Tue Nov 24, 10:04am

Tue Nov 24, 9:04am

Tue Nov 24, 8:04am

Tue Nov 24, 7:04am

Tue Nov 24, 6:04am

Tue Nov 24, 5:04am

Tue Nov 24, 4:05am

Tue Nov 24, 3:04am

Tue Nov 24, 2:04am

Tue Nov 24, 1:04am

Tue Nov 24, 12:05am

Mon Nov 23, 11:04pm

Mon Nov 23, 10:04pm

Mon Nov 23, 9:04pm

Mon Nov 23, 8:04pm

Mon Nov 23, 7:04pm

Mon Nov 23, 6:04pm

Mon Nov 23, 5:04pm

Mon Nov 23, 4:04pm

Mon Nov 23, 3:04pm

Mon Nov 23, 2:04pm

Mon Nov 23, 1:04pm

Mon Nov 23, 12:04pm

Mon Nov 23, 11:04am

Mon Nov 23, 10:04am

Mon Nov 23, 9:04am

Mon Nov 23, 8:05am

Mon Nov 23, 7:04am

Mon Nov 23, 6:04am

Mon Nov 23, 5:04am

Mon Nov 23, 4:04am

Mon Nov 23, 3:04am

Mon Nov 23, 2:04am

Mon Nov 23, 1:04am

Mon Nov 23, 12:05am

Sun Nov 22, 11:04pm

Sun Nov 22, 10:04pm

Sun Nov 22, 9:04pm

Sun Nov 22, 8:05pm

Sun Nov 22, 7:04pm

Sun Nov 22, 6:04pm

Sun Nov 22, 5:04pm

Sun Nov 22, 4:04pm

Sun Nov 22, 3:04pm

Sun Nov 22, 2:04pm

Sun Nov 22, 1:05pm

Sun Nov 22, 12:04pm

Sun Nov 22, 11:04am

Sun Nov 22, 10:05am

Sun Nov 22, 9:04am

Sun Nov 22, 8:04am

Sun Nov 22, 7:04am

Sun Nov 22, 6:04am

Sun Nov 22, 5:04am

Sun Nov 22, 4:04am

Sun Nov 22, 3:04am

Sun Nov 22, 2:04am

Sun Nov 22, 1:04am

Sun Nov 22, 12:04am

Sat Nov 21, 11:04pm

Sat Nov 21, 10:04pm

Sat Nov 21, 9:04pm

Sat Nov 21, 8:05pm

Sat Nov 21, 7:04pm

Sat Nov 21, 6:04pm

Sat Nov 21, 5:04pm

Sat Nov 21, 4:05pm

Sat Nov 21, 3:04pm

Sat Nov 21, 2:04pm

Sat Nov 21, 1:05pm

Sat Nov 21, 12:04pm

Sat Nov 21, 11:04am

Sat Nov 21, 10:04am

Sat Nov 21, 9:04am

Sat Nov 21, 8:04am

Sat Nov 21, 7:04am

Sat Nov 21, 6:04am

Sat Nov 21, 5:04am

Sat Nov 21, 4:04am

Sat Nov 21, 3:04am

Sat Nov 21, 2:04am

Sat Nov 21, 1:04am

Sat Nov 21, 12:04am

Fri Nov 20, 11:04pm

Fri Nov 20, 10:04pm

Fri Nov 20, 9:04pm

Fri Nov 20, 8:04pm

Fri Nov 20, 7:04pm

Fri Nov 20, 6:04pm

Fri Nov 20, 5:04pm

Fri Nov 20, 4:05pm

Fri Nov 20, 3:05pm

Fri Nov 20, 2:04pm

Fri Nov 20, 1:04pm

Fri Nov 20, 12:04pm

Fri Nov 20, 11:04am

Fri Nov 20, 10:04am

Fri Nov 20, 9:04am

Fri Nov 20, 8:04am

Fri Nov 20, 7:04am

Fri Nov 20, 6:04am

Fri Nov 20, 5:04am

Fri Nov 20, 4:04am

Meta data:

ID: 8ec22e2c-7c70-4b96-a650-ce36b89e0159
Link: https://api.weather.gov/products/8ec22e2c-7c70-4b96-a650-ce36b89e0159